TimeHST,TemperatureF,Dew PointF,Humidity,Sea Level PressureIn,VisibilityMPH,Wind Direction,Wind SpeedMPH,Gust SpeedMPH,PrecipitationIn,Events,Conditions,WindDirDegrees,DateUTC
12:57 AM,75.2,68.0,78,30.04,10.0,East,9.2,-,N/A,,Scattered Clouds,100,2013-07-27 10:57:00
1:57 AM,73.4,69.1,86,30.02,10.0,East,5.8,-,N/A,,Scattered Clouds,80,2013-07-27 11:57:00
2:57 AM,73.4,66.9,80,30.02,10.0,Variable,6.9,-,N/A,,Scattered Clouds,0,2013-07-27 12:57:00
3:57 AM,73.4,69.1,86,30.02,10.0,East,6.9,-,0.00,,Scattered Clouds,90,2013-07-27 13:57:00
4:57 AM,73.4,68.0,83,30.03,10.0,East,5.8,-,N/A,,Scattered Clouds,90,2013-07-27 14:57:00
5:57 AM,73.4,66.0,78,30.03,10.0,East,9.2,-,N/A,,Scattered Clouds,80,2013-07-27 15:57:00
6:57 AM,75.2,66.0,73,30.04,10.0,ENE,9.2,-,N/A,,Clear,70,2013-07-27 16:57:00
7:57 AM,75.2,64.9,70,30.06,10.0,ENE,8.1,-,N/A,,Partly Cloudy,70,2013-07-27 17:57:00
8:57 AM,78.8,64.9,62,30.06,10.0,NE,11.5,-,N/A,,Scattered Clouds,50,2013-07-27 18:57:00
9:57 AM,78.8,66.9,67,30.05,10.0,ENE,9.2,-,N/A,,Clear,60,2013-07-27 19:57:00
10:00 AM,-9999,-9999,N/A,-9999,-9999.0,North,-9999.0,-,N/A,,Unknown,0,2013-07-27 20:00:00
10:45 AM,-9999,-9999,N/A,-9999,-9999.0,North,-9999.0,-,N/A,,Unknown,0,2013-07-27 20:45:00
10:57 AM,82.4,64.9,55,30.05,10.0,NE,9.2,17.3,N/A,,Partly Cloudy,50,2013-07-27 20:57:00
11:57 AM,84.2,66.9,56,30.03,10.0,NE,8.1,16.1,N/A,,Scattered Clouds,50,2013-07-27 21:57:00
12:57 PM,84.2,68.0,58,30.02,10.0,ENE,11.5,19.6,N/A,,Scattered Clouds,60,2013-07-27 22:57:00
1:57 PM,84.2,68.0,58,30.00,10.0,ENE,11.5,18.4,N/A,,Partly Cloudy,60,2013-07-27 23:57:00
2:57 PM,86.0,68.0,55,29.99,10.0,NE,9.2,19.6,N/A,,Mostly Cloudy,50,2013-07-28 00:57:00
3:57 PM,86.0,68.0,55,29.99,10.0,NE,9.2,18.4,N/A,,Scattered Clouds,50,2013-07-28 01:57:00
4:57 PM,86.0,69.1,57,29.99,10.0,ENE,5.8,-,0.00,,Mostly Cloudy,60,2013-07-28 02:57:00
5:57 PM,80.6,70.0,70,29.99,10.0,East,8.1,19.6,N/A,,Mostly Cloudy,80,2013-07-28 03:57:00
6:04 PM,77.0,69.8,78,30.01,6.2,East,6.9,-,N/A,,Mostly Cloudy,80,2013-07-28 04:04:00
6:47 PM,77.0,69.8,78,30.02,6.2,East,9.2,-,N/A,,Overcast,80,2013-07-28 04:47:00
6:57 PM,77.0,69.1,76,30.00,10.0,East,6.9,-,N/A,,Overcast,80,2013-07-28 04:57:00
7:57 PM,77.0,69.1,76,30.02,10.0,ENE,9.2,-,N/A,,Overcast,70,2013-07-28 05:57:00
8:57 PM,75.2,70.0,84,30.04,10.0,ENE,5.8,-,N/A,,Mostly Cloudy,70,2013-07-28 06:57:00
9:57 PM,73.4,70.0,89,30.04,10.0,East,9.2,-,0.00,,Partly Cloudy,80,2013-07-28 07:57:00
10:57 PM,75.2,68.0,78,30.04,10.0,ENE,8.1,-,N/A,,Clear,60,2013-07-28 08:57:00
11:57 PM,75.2,66.9,75,30.04,10.0,ENE,10.4,16.1,N/A,,Partly Cloudy,70,2013-07-28 09:57:00